Weather in Penang

Malaysia     5°21′13″N   100°20′37″E
temp.,
°C
wind,
m/s
gust,
m/s
humid.,
%
clouds,
%
prec.,
mm/h
press.,
hPa
HPBL,
m
23 april, fri
fri2323:00+28nw4474100 6.3 1012400
02:00+27e2276100 9.1 1010218
05:00+27s5476100 1.6 1009657
08:00+27sse5581100 3.5 1011608
11:00+28ssw337488 1.6 1012674
14:00+28sw2273100 1.6 1010676
17:00+28w2273100 0.1 1008613
20:00+27wnw2377100 4.1 1010160
24 april, sat
sat2423:00+28nw2271100 0.6 1011507
02:00+28nw2274100 1.1 1010358
05:00+27wnw3373100 3.7 1009364
08:00+28nnw4474100 3.8 1010569
11:00+28nnw447699 0.0 1011737
14:00+28nw4475100 0.0 1010706
17:00+28nw4573100 0.0 1008656
20:00+28nnw3472100 0.0 1009643
25 april, sun
sun2523:00+28nnw3373100 0.1 1011478
02:00+28n457599 2.3 1010412
05:00+27n2374100 4.6 1009210
08:00+27nne4477100 4.8 1010465
11:00+28nne337599 0.0 1012488
14:00+29nnw447161 0.8 1010494
17:00+29nnw557084 0.1 1008663
20:00+29n5574100 0.5 1009481
26 april, mon
mon2623:00+29n4574100 0.0 1011564
02:00+28n3477100 4.5 1010241
05:00+28nnw337299 3.2 1009622
08:00+28ene3274100 3.2 1010466
11:00+28n337590 0.0 1011395
14:00+29nw447490 1.6 1009544
17:00+29nw5572100 2.6 1008768
20:00+29nnw4572100 3.0 1009655
27 april, tue
tue2723:00+29n4470100 0.8 1012651
02:00+28ene3273100 2.3 1010426
05:00+27se3279100 0.0 1009295
08:00+27e2276100 0.0 1010256
11:00+27ene117498 0.5 1011302
14:00+28nw3373100 0.8 1010542
17:00+29nw3474100 0.0 1008569
20:00+29nw3373100 0.0 1009658